Погода в Бойково

Украина / Донецкая область     47°24′39″N   38°00′52″E
темп.,
°C
ветер,
м/с
пор.,
м/с
влажн.,
%
обл.,
%
осадки,
мм/ч
давл.,
гПа
погр.,
м
8 марта, пн
пн823:00−1зюз713600 0.0 1018514
02:00−1зюз714650 0.0 1017493
05:00−1зюз714720 0.0 1016489
08:00+1зюз8127035 0.0 1015641
11:00+5зюз91255100 0.0 10141373
14:00+5юз8115897 0.0 10131718
17:00+2юз61189100 0.1 1012669
20:00+2юз51187100 0.3 1013521
9 марта, вт
вт923:000зсз3694100 0.1 1013247
02:00−1з3591100 0.1 1013167
05:00−1зсз3792100 0.0 1013340
08:000зсз5773100 0.0 1015844
11:00+1сз685729 0.1 10161265
14:00+2сз794739 0.1 10171601
17:000сз685657 0.0 10181377
20:00−2сз576043 0.0 1021954
10 марта, ср
ср1023:00−3ссз465811 0.0 1023959
02:00−3ссз455726 0.0 1024835
05:00−4с35563 0.0 1025683
08:00−4ссв344816 0.0 1025736
11:00−2всв2237100 0.0 1025964
14:00−1всв2234100 0.0 10241020
17:00−2всв3441100 0.0 1023541
20:00−3всв3647100 0.0 1023470
11 марта, чт
чт1123:00−3всв475079 0.0 1023497
02:00−3всв474778 0.0 1023573
05:00−4всв484699 0.0 1023600
08:00−3всв683855 0.0 1024828
11:000всв68361 0.0 10241143
14:00+1всв67391 0.0 10251460
17:00−1всв475116 0.0 1026545
20:00−3в485943 0.0 1029603
12 марта, пт
пт1223:00−4в46560 0.0 1030692
02:00−5в35520 0.0 1030744
05:00−5в45450 0.0 1032682
08:00−5вюв55350 0.0 1032683
11:00−3вюв45240 0.0 1032900
14:00−2юв45260 0.0 10301024
17:00−3юв45325 0.0 1030750
20:00−3юв593453 0.0 1029720